owner,sensor,date,latitude,longitude,vertical_datum,sea_water_practical_salinity,qcFlag 
DISL,ioos:station:DISL:CATA:1,2009-01-01T00:00:00Z,30.3085,-88.1395,2.179,9.66,1111122 
DISL,ioos:station:DISL:CATA:1,2009-01-01T00:30:00Z,30.3085,-88.1395,2.196,10.49,1111122 
DISL,ioos:station:DISL:CATA:1,2009-01-01T01:00:00Z,30.3085,-88.1395,2.211,10.66,1111122 
DISL,ioos:station:DISL:CATA:1,2009-01-01T01:30:00Z,30.3085,-88.1395,2.232,10.93,1111122 
DISL,ioos:station:DISL:CATA:1,2009-01-01T02:00:00Z,30.3085,-88.1395,2.241,11.14,1111122 
DISL,ioos:station:DISL:CATA:1,2009-01-01T02:30:00Z,30.3085,-88.1395,2.253,10.99,1111122 
DISL,ioos:station:DISL:CATA:1,2009-01-01T03:00:00Z,30.3085,-88.1395,2.287,10.2,1111122 
DISL,ioos:station:DISL:CATA:1,2009-01-01T03:30:00Z,30.3085,-88.1395,2.328,8.79,1111122 
DISL,ioos:station:DISL:CATA:1,2009-01-01T04:00:00Z,30.3085,-88.1395,2.353,8.52,1111122 
DISL,ioos:station:DISL:CATA:1,2009-01-01T04:30:00Z,30.3085,-88.1395,2.36,8.51,1111122 
DISL,ioos:station:DISL:CATA:1,2009-01-01T05:00:00Z,30.3085,-88.1395,2.36,8.73,1111122 
DISL,ioos:station:DISL:CATA:1,2009-01-01T05:30:00Z,30.3085,-88.1395,2.337,8.66,1111122 
DISL,ioos:station:DISL:CATA:1,2009-01-01T06:00:00Z,30.3085,-88.1395,2.333,8.67,1111122 
DISL,ioos:station:DISL:CATA:1,2009-01-01T06:30:00Z,30.3085,-88.1395,2.32,8.68,1111122 
DISL,ioos:station:DISL:CATA:1,2009-01-01T07:00:00Z,30.3085,-88.1395,2.307,8.69,1111122 
DISL,ioos:station:DISL:CATA:1,2009-01-01T07:30:00Z,30.3085,-88.1395,2.299,8.7,1111122 
DISL,ioos:station:DISL:CATA:1,2009-01-01T08:00:00Z,30.3085,-88.1395,2.291,8.69,1111122 
DISL,ioos:station:DISL:CATA:1,2009-01-01T08:30:00Z,30.3085,-88.1395,2.297,8.52,1111122 
DISL,ioos:station:DISL:CATA:1,2009-01-01T09:00:00Z,30.3085,-88.1395,2.296,8.33,1111122 
DISL,ioos:station:DISL:CATA:1,2009-01-01T09:30:00Z,30.3085,-88.1395,2.281,8.41,1111122 
DISL,ioos:station:DISL:CATA:1,2009-01-01T10:00:00Z,30.3085,-88.1395,2.279,8.36,1111122 
DISL,ioos:station:DISL:CATA:1,2009-01-01T10:30:00Z,30.3085,-88.1395,2.27,8.16,1111122 
DISL,ioos:station:DISL:CATA:1,2009-01-01T11:00:00Z,30.3085,-88.1395,2.266,8.2,1111122 
DISL,ioos:station:DISL:CATA:1,2009-01-01T11:30:00Z,30.3085,-88.1395,2.254,7.88,1111122 
DISL,ioos:station:DISL:CATA:1,2009-01-01T12:00:00Z,30.3085,-88.1395,2.23,7.66,1111122 
DISL,ioos:station:DISL:CATA:1,2009-01-01T12:30:00Z,30.3085,-88.1395,2.197,7.5,1111122 
DISL,ioos:station:DISL:CATA:1,2009-01-01T13:00:00Z,30.3085,-88.1395,2.185,7.39,1111122 
DISL,ioos:station:DISL:CATA:1,2009-01-01T13:30:00Z,30.3085,-88.1395,2.179,7.3,1111122 
DISL,ioos:station:DISL:CATA:1,2009-01-01T14:00:00Z,30.3085,-88.1395,2.175,7.52,1111122 
DISL,ioos:station:DISL:CATA:1,2009-01-01T14:30:00Z,30.3085,-88.1395,2.199,7.73,1111122 
DISL,ioos:station:DISL:CATA:1,2009-01-01T15:00:00Z,30.3085,-88.1395,2.205,7.89,1111122 
DISL,ioos:station:DISL:CATA:1,2009-01-01T15:30:00Z,30.3085,-88.1395,2.207,8.06,1111122 
DISL,ioos:station:DISL:CATA:1,2009-01-01T16:00:00Z,30.3085,-88.1395,2.21,8.11,1111122 
DISL,ioos:station:DISL:CATA:1,2009-01-01T16:30:00Z,30.3085,-88.1395,2.229,8.29,1111122 
DISL,ioos:station:DISL:CATA:1,2009-01-01T17:00:00Z,30.3085,-88.1395,2.24,8.34,1111122 
DISL,ioos:station:DISL:CATA:1,2009-01-01T17:30:00Z,30.3085,-88.1395,2.248,8.36,1111122 
DISL,ioos:station:DISL:CATA:1,2009-01-01T18:00:00Z,30.3085,-88.1395,2.26,8.49,1111122 
DISL,ioos:station:DISL:CATA:1,2009-01-01T18:30:00Z,30.3085,-88.1395,2.266,8.58,1111122 
DISL,ioos:station:DISL:CATA:1,2009-01-01T19:00:00Z,30.3085,-88.1395,2.273,8.81,1111122 
DISL,ioos:station:DISL:CATA:1,2009-01-01T19:30:00Z,30.3085,-88.1395,2.273,9.17,1111122 
DISL,ioos:station:DISL:CATA:1,2009-01-01T20:00:00Z,30.3085,-88.1395,2.282,9.79,1111122 
DISL,ioos:station:DISL:CATA:1,2009-01-01T20:30:00Z,30.3085,-88.1395,2.286,11.53,1111122 
DISL,ioos:station:DISL:CATA:1,2009-01-01T21:00:00Z,30.3085,-88.1395,2.311,10.9,1111122 
DISL,ioos:station:DISL:CATA:1,2009-01-01T21:30:00Z,30.3085,-88.1395,2.325,12.0,1111122 
DISL,ioos:station:DISL:CATA:1,2009-01-01T22:00:00Z,30.3085,-88.1395,2.332,12.15,1111122 
DISL,ioos:station:DISL:CATA:1,2009-01-01T22:30:00Z,30.3085,-88.1395,2.352,12.28,1111122 
DISL,ioos:station:DISL:CATA:1,2009-01-01T23:00:00Z,30.3085,-88.1395,2.368,12.37,1111122 
DISL,ioos:station:DISL:CATA:1,2009-01-01T23:30:00Z,30.3085,-88.1395,2.358,12.71,1111122 
DISL,ioos:station:DISL:CATA:1,2009-01-02T00:00:00Z,30.3085,-88.1395,2.37,12.52,1111122 
DISL,ioos:station:DISL:CATA:1,2009-01-02T00:30:00Z,30.3085,-88.1395,2.377,11.58,1111122 
DISL,ioos:station:DISL:CATA:1,2009-01-02T01:00:00Z,30.3085,-88.1395,2.378,10.36,1111122 
DISL,ioos:station:DISL:CATA:1,2009-01-02T01:30:00Z,30.3085,-88.1395,2.387,10.14,1111122 
DISL,ioos:station:DISL:CATA:1,2009-01-02T02:00:00Z,30.3085,-88.1395,2.403,10.22,1111122 
DISL,ioos:station:DISL:CATA:1,2009-01-02T02:30:00Z,30.3085,-88.1395,2.424,10.51,1111122 
DISL,ioos:station:DISL:CATA:1,2009-01-02T03:00:00Z,30.3085,-88.1395,2.44,11.94,1111122 
DISL,ioos:station:DISL:CATA:1,2009-01-02T03:30:00Z,30.3085,-88.1395,2.465,12.76,1111122 
DISL,ioos:station:DISL:CATA:1,2009-01-02T04:00:00Z,30.3085,-88.1395,2.485,12.89,1111122 
DISL,ioos:station:DISL:CATA:1,2009-01-02T04:30:00Z,30.3085,-88.1395,2.493,11.1,1111122 
DISL,ioos:station:DISL:CATA:1,2009-01-02T05:00:00Z,30.3085,-88.1395,2.508,9.94,1111122 
DISL,ioos:station:DISL:CATA:1,2009-01-02T05:30:00Z,30.3085,-88.1395,2.502,11.57,1111122 
DISL,ioos:station:DISL:CATA:1,2009-01-02T06:00:00Z,30.3085,-88.1395,2.502,12.16,1111122 
DISL,ioos:station:DISL:CATA:1,2009-01-02T06:30:00Z,30.3085,-88.1395,2.508,11.48,1111122 
DISL,ioos:station:DISL:CATA:1,2009-01-02T07:00:00Z,30.3085,-88.1395,2.49,11.74,1111122 
DISL,ioos:station:DISL:CATA:1,2009-01-02T07:30:00Z,30.3085,-88.1395,2.497,12.15,1111122 
DISL,ioos:station:DISL:CATA:1,2009-01-02T08:00:00Z,30.3085,-88.1395,2.484,12.47,1111122 
DISL,ioos:station:DISL:CATA:1,2009-01-02T08:30:00Z,30.3085,-88.1395,2.462,12.68,1111122 
DISL,ioos:station:DISL:CATA:1,2009-01-02T09:00:00Z,30.3085,-88.1395,2.462,12.13,1111122 
DISL,ioos:station:DISL:CATA:1,2009-01-02T09:30:00Z,30.3085,-88.1395,2.44,12.22,1111122 
DISL,ioos:station:DISL:CATA:1,2009-01-02T10:00:00Z,30.3085,-88.1395,2.407,12.37,1111122 
DISL,ioos:station:DISL:CATA:1,2009-01-02T10:30:00Z,30.3085,-88.1395,2.377,12.13,1111122 
DISL,ioos:station:DISL:CATA:1,2009-01-02T11:00:00Z,30.3085,-88.1395,2.374,12.52,1111122 
DISL,ioos:station:DISL:CATA:1,2009-01-02T11:30:00Z,30.3085,-88.1395,2.353,12.54,1111122 
DISL,ioos:station:DISL:CATA:1,2009-01-02T12:00:00Z,30.3085,-88.1395,2.326,12.53,1111122 
DISL,ioos:station:DISL:CATA:1,2009-01-02T12:30:00Z,30.3085,-88.1395,2.3,12.18,1111122 
DISL,ioos:station:DISL:CATA:1,2009-01-02T13:00:00Z,30.3085,-88.1395,2.27,11.66,1111122 
DISL,ioos:station:DISL:CATA:1,2009-01-02T13:30:00Z,30.3085,-88.1395,2.262,10.98,1111122 
DISL,ioos:station:DISL:CATA:1,2009-01-02T14:00:00Z,30.3085,-88.1395,2.271,10.31,1111122 
DISL,ioos:station:DISL:CATA:1,2009-01-02T14:30:00Z,30.3085,-88.1395,2.266,10.17,1111122 
DISL,ioos:station:DISL:CATA:1,2009-01-02T15:00:00Z,30.3085,-88.1395,2.265,9.54,1111122 
DISL,ioos:station:DISL:CATA:1,2009-01-02T15:30:00Z,30.3085,-88.1395,2.275,9.45,1111122 
DISL,ioos:station:DISL:CATA:1,2009-01-02T16:00:00Z,30.3085,-88.1395,2.282,9.35,1111122 
DISL,ioos:station:DISL:CATA:1,2009-01-02T16:30:00Z,30.3085,-88.1395,2.302,9.26,1111122 
DISL,ioos:station:DISL:CATA:1,2009-01-02T17:00:00Z,30.3085,-88.1395,2.31,9.44,1111122 
DISL,ioos:station:DISL:CATA:1,2009-01-02T17:30:00Z,30.3085,-88.1395,2.312,9.34,1111122 
DISL,ioos:station:DISL:CATA:1,2009-01-02T18:00:00Z,30.3085,-88.1395,2.309,9.35,1111122 
DISL,ioos:station:DISL:CATA:1,2009-01-02T18:30:00Z,30.3085,-88.1395,2.297,9.34,1111122 
DISL,ioos:station:DISL:CATA:1,2009-01-02T19:00:00Z,30.3085,-88.1395,2.309,9.37,1111122 
DISL,ioos:station:DISL:CATA:1,2009-01-02T19:30:00Z,30.3085,-88.1395,2.317,9.62,1111122 
DISL,ioos:station:DISL:CATA:1,2009-01-02T20:00:00Z,30.3085,-88.1395,2.328,9.74,1111122 
DISL,ioos:station:DISL:CATA:1,2009-01-02T20:30:00Z,30.3085,-88.1395,2.331,9.95,1111122 
DISL,ioos:station:DISL:CATA:1,2009-01-02T21:00:00Z,30.3085,-88.1395,2.348,10.14,1111122 
DISL,ioos:station:DISL:CATA:1,2009-01-02T21:30:00Z,30.3085,-88.1395,2.346,10.21,1111122 
DISL,ioos:station:DISL:CATA:1,2009-01-02T22:00:00Z,30.3085,-88.1395,2.362,10.29,1111122 
DISL,ioos:station:DISL:CATA:1,2009-01-02T22:30:00Z,30.3085,-88.1395,2.373,10.71,1111122 
DISL,ioos:station:DISL:CATA:1,2009-01-02T23:00:00Z,30.3085,-88.1395,2.377,10.73,1111122 
DISL,ioos:station:DISL:CATA:1,2009-01-02T23:30:00Z,30.3085,-88.1395,2.381,11.67,1111122 
DISL,ioos:station:DISL:CATA:1,2009-01-03T00:00:00Z,30.3085,-88.1395,2.383,11.8,1111122 
DISL,ioos:station:DISL:CATA:1,2009-01-03T00:30:00Z,30.3085,-88.1395,2.372,12.04,1111122 
DISL,ioos:station:DISL:CATA:1,2009-01-03T01:00:00Z,30.3085,-88.1395,2.375,12.56,1111122 
DISL,ioos:station:DISL:CATA:1,2009-01-03T01:30:00Z,30.3085,-88.1395,2.364,15.94,1111122 
DISL,ioos:station:DISL:CATA:1,2009-01-03T02:00:00Z,30.3085,-88.1395,2.364,16.72,1111122 
DISL,ioos:station:DISL:CATA:1,2009-01-03T02:30:00Z,30.3085,-88.1395,2.362,16.84,1111122 
DISL,ioos:station:DISL:CATA:1,2009-01-03T03:00:00Z,30.3085,-88.1395,2.357,17.93,1111122 
DISL,ioos:station:DISL:CATA:1,2009-01-03T03:30:00Z,30.3085,-88.1395,2.363,18.06,1111122 
DISL,ioos:station:DISL:CATA:1,2009-01-03T04:00:00Z,30.3085,-88.1395,2.356,20.37,1111122 
DISL,ioos:station:DISL:CATA:1,2009-01-03T04:30:00Z,30.3085,-88.1395,2.339,19.81,1111122 
DISL,ioos:station:DISL:CATA:1,2009-01-03T05:00:00Z,30.3085,-88.1395,2.355,19.03,1111122 
DISL,ioos:station:DISL:CATA:1,2009-01-03T05:30:00Z,30.3085,-88.1395,2.353,19.82,1111122 
DISL,ioos:station:DISL:CATA:1,2009-01-03T06:00:00Z,30.3085,-88.1395,2.329,20.04,1111122 
DISL,ioos:station:DISL:CATA:1,2009-01-03T06:30:00Z,30.3085,-88.1395,2.325,21.06,1111122 
DISL,ioos:station:DISL:CATA:1,2009-01-03T07:00:00Z,30.3085,-88.1395,2.336,21.84,1111122 
DISL,ioos:station:DISL:CATA:1,2009-01-03T07:30:00Z,30.3085,-88.1395,2.337,22.34,1111122 
DISL,ioos:station:DISL:CATA:1,2009-01-03T08:00:00Z,30.3085,-88.1395,2.326,23.55,1111122 
DISL,ioos:station:DISL:CATA:1,2009-01-03T08:30:00Z,30.3085,-88.1395,2.323,24.58,1111122 
DISL,ioos:station:DISL:CATA:1,2009-01-03T09:00:00Z,30.3085,-88.1395,2.32,24.99,1111122 
DISL,ioos:station:DISL:CATA:1,2009-01-03T09:30:00Z,30.3085,-88.1395,2.314,25.14,1111122 
DISL,ioos:station:DISL:CATA:1,2009-01-03T10:00:00Z,30.3085,-88.1395,2.293,25.35,1111122 
DISL,ioos:station:DISL:CATA:1,2009-01-03T10:30:00Z,30.3085,-88.1395,2.295,25.48,1111122 
DISL,ioos:station:DISL:CATA:1,2009-01-03T11:00:00Z,30.3085,-88.1395,2.309,25.59,1111122 
DISL,ioos:station:DISL:CATA:1,2009-01-03T11:30:00Z,30.3085,-88.1395,2.295,25.8,1111122 
DISL,ioos:station:DISL:CATA:1,2009-01-03T12:00:00Z,30.3085,-88.1395,2.283,25.43,1111122 
DISL,ioos:station:DISL:CATA:1,2009-01-03T12:30:00Z,30.3085,-88.1395,2.267,20.72,1111122 
DISL,ioos:station:DISL:CATA:1,2009-01-03T13:00:00Z,30.3085,-88.1395,2.265,16.64,1111122 
DISL,ioos:station:DISL:CATA:1,2009-01-03T13:30:00Z,30.3085,-88.1395,2.292,11.51,1111122 
DISL,ioos:station:DISL:CATA:1,2009-01-03T14:00:00Z,30.3085,-88.1395,2.276,10.23,1111122 
DISL,ioos:station:DISL:CATA:1,2009-01-03T14:30:00Z,30.3085,-88.1395,2.286,9.85,1111122 
DISL,ioos:station:DISL:CATA:1,2009-01-03T15:00:00Z,30.3085,-88.1395,2.307,9.89,1111122 
DISL,ioos:station:DISL:CATA:1,2009-01-03T15:30:00Z,30.3085,-88.1395,2.306,9.65,1111122 
DISL,ioos:station:DISL:CATA:1,2009-01-03T16:00:00Z,30.3085,-88.1395,2.308,10.26,1111122 
DISL,ioos:station:DISL:CATA:1,2009-01-03T16:30:00Z,30.3085,-88.1395,2.319,10.38,1111122 
DISL,ioos:station:DISL:CATA:1,2009-01-03T17:00:00Z,30.3085,-88.1395,2.329,10.49,1111122 
DISL,ioos:station:DISL:CATA:1,2009-01-03T17:30:00Z,30.3085,-88.1395,2.334,10.47,1111122 
DISL,ioos:station:DISL:CATA:1,2009-01-03T18:00:00Z,30.3085,-88.1395,2.335,10.3,1111122 
DISL,ioos:station:DISL:CATA:1,2009-01-03T18:30:00Z,30.3085,-88.1395,2.34,10.18,1111122 
DISL,ioos:station:DISL:CATA:1,2009-01-03T19:00:00Z,30.3085,-88.1395,2.359,9.41,1111122 
DISL,ioos:station:DISL:CATA:1,2009-01-03T19:30:00Z,30.3085,-88.1395,2.356,9.88,1111122 
DISL,ioos:station:DISL:CATA:1,2009-01-03T20:00:00Z,30.3085,-88.1395,2.383,9.86,1111122 
DISL,ioos:station:DISL:CATA:1,2009-01-03T20:30:00Z,30.3085,-88.1395,2.409,10.03,1111122 
DISL,ioos:station:DISL:CATA:1,2009-01-03T21:00:00Z,30.3085,-88.1395,2.42,10.66,1111122 
DISL,ioos:station:DISL:CATA:1,2009-01-03T21:30:00Z,30.3085,-88.1395,2.454,10.59,1111122 
DISL,ioos:station:DISL:CATA:1,2009-01-03T22:00:00Z,30.3085,-88.1395,2.463,10.84,1111122 
DISL,ioos:station:DISL:CATA:1,2009-01-03T22:30:00Z,30.3085,-88.1395,2.462,10.92,1111122 
DISL,ioos:station:DISL:CATA:1,2009-01-03T23:00:00Z,30.3085,-88.1395,2.48,10.75,1111122 
DISL,ioos:station:DISL:CATA:1,2009-01-03T23:30:00Z,30.3085,-88.1395,2.467,10.89,1111122 
DISL,ioos:station:DISL:CATA:1,2009-01-04T00:00:00Z,30.3085,-88.1395,2.449,10.68,1111122 
DISL,ioos:station:DISL:CATA:1,2009-01-04T00:30:00Z,30.3085,-88.1395,2.426,14.15,1111122 
DISL,ioos:station:DISL:CATA:1,2009-01-04T01:00:00Z,30.3085,-88.1395,2.403,14.03,1111122 
DISL,ioos:station:DISL:CATA:1,2009-01-04T01:30:00Z,30.3085,-88.1395,2.426,16.71,1111122 
DISL,ioos:station:DISL:CATA:1,2009-01-04T02:00:00Z,30.3085,-88.1395,2.42,16.33,1111122 
DISL,ioos:station:DISL:CATA:1,2009-01-04T02:30:00Z,30.3085,-88.1395,2.387,11.62,1111122 
DISL,ioos:station:DISL:CATA:1,2009-01-04T03:00:00Z,30.3085,-88.1395,2.362,10.72,1111122 
DISL,ioos:station:DISL:CATA:1,2009-01-04T03:30:00Z,30.3085,-88.1395,2.355,10.49,1111122 
DISL,ioos:station:DISL:CATA:1,2009-01-04T04:00:00Z,30.3085,-88.1395,2.329,10.65,1111122 
DISL,ioos:station:DISL:CATA:1,2009-01-04T04:30:00Z,30.3085,-88.1395,2.306,10.76,1111122 
DISL,ioos:station:DISL:CATA:1,2009-01-04T05:00:00Z,30.3085,-88.1395,2.289,10.39,1111122 
DISL,ioos:station:DISL:CATA:1,2009-01-04T05:30:00Z,30.3085,-88.1395,2.301,9.99,1111122 
DISL,ioos:station:DISL:CATA:1,2009-01-04T06:00:00Z,30.3085,-88.1395,2.294,9.84,1111122 
DISL,ioos:station:DISL:CATA:1,2009-01-04T06:30:00Z,30.3085,-88.1395,2.265,9.92,1111122 
DISL,ioos:station:DISL:CATA:1,2009-01-04T07:00:00Z,30.3085,-88.1395,2.268,10.11,1111122 
DISL,ioos:station:DISL:CATA:1,2009-01-04T07:30:00Z,30.3085,-88.1395,2.202,9.91,1111122 
DISL,ioos:station:DISL:CATA:1,2009-01-04T08:00:00Z,30.3085,-88.1395,2.177,10.16,1111122 
DISL,ioos:station:DISL:CATA:1,2009-01-04T08:30:00Z,30.3085,-88.1395,2.193,10.23,1111122 
DISL,ioos:station:DISL:CATA:1,2009-01-04T09:00:00Z,30.3085,-88.1395,2.225,10.17,1111122 
DISL,ioos:station:DISL:CATA:1,2009-01-04T09:30:00Z,30.3085,-88.1395,2.255,10.28,1111122 
DISL,ioos:station:DISL:CATA:1,2009-01-04T10:00:00Z,30.3085,-88.1395,2.267,10.26,1111122 
DISL,ioos:station:DISL:CATA:1,2009-01-04T10:30:00Z,30.3085,-88.1395,2.291,10.42,1111122 
DISL,ioos:station:DISL:CATA:1,2009-01-04T11:00:00Z,30.3085,-88.1395,2.341,10.54,1111122 
DISL,ioos:station:DISL:CATA:1,2009-01-04T11:30:00Z,30.3085,-88.1395,2.334,10.57,1111122 
DISL,ioos:station:DISL:CATA:1,2009-01-04T12:00:00Z,30.3085,-88.1395,2.298,10.52,1111122 
DISL,ioos:station:DISL:CATA:1,2009-01-04T12:30:00Z,30.3085,-88.1395,2.328,10.44,1111122 
DISL,ioos:station:DISL:CATA:1,2009-01-04T13:00:00Z,30.3085,-88.1395,2.3,10.21,1111122 
DISL,ioos:station:DISL:CATA:1,2009-01-04T13:30:00Z,30.3085,-88.1395,2.3,10.43,1111122 
DISL,ioos:station:DISL:CATA:1,2009-01-04T14:00:00Z,30.3085,-88.1395,2.325,10.53,1111122 
DISL,ioos:station:DISL:CATA:1,2009-01-04T14:30:00Z,30.3085,-88.1395,2.326,10.4,1111122 
DISL,ioos:station:DISL:CATA:1,2009-01-04T15:00:00Z,30.3085,-88.1395,2.327,10.47,1111122 
DISL,ioos:station:DISL:CATA:1,2009-01-04T15:30:00Z,30.3085,-88.1395,2.35,10.46,1111122 
DISL,ioos:station:DISL:CATA:1,2009-01-04T16:00:00Z,30.3085,-88.1395,2.382,10.57,1111122 
DISL,ioos:station:DISL:CATA:1,2009-01-04T16:30:00Z,30.3085,-88.1395,2.412,10.7,1111122 
DISL,ioos:station:DISL:CATA:1,2009-01-04T17:00:00Z,30.3085,-88.1395,2.405,10.61,1111122 
DISL,ioos:station:DISL:CATA:1,2009-01-04T17:30:00Z,30.3085,-88.1395,2.409,10.4,1111122 
DISL,ioos:station:DISL:CATA:1,2009-01-04T18:00:00Z,30.3085,-88.1395,2.413,10.31,1111122 
DISL,ioos:station:DISL:CATA:1,2009-01-04T18:30:00Z,30.3085,-88.1395,2.418,11.08,1111122 
DISL,ioos:station:DISL:CATA:1,2009-01-04T19:00:00Z,30.3085,-88.1395,2.431,14.17,1111122 
DISL,ioos:station:DISL:CATA:1,2009-01-04T19:30:00Z,30.3085,-88.1395,2.431,16.18,1111122 
DISL,ioos:station:DISL:CATA:1,2009-01-04T20:00:00Z,30.3085,-88.1395,2.444,17.88,1111122 
DISL,ioos:station:DISL:CATA:1,2009-01-04T20:30:00Z,30.3085,-88.1395,2.442,20.08,1111122 
DISL,ioos:station:DISL:CATA:1,2009-01-04T21:00:00Z,30.3085,-88.1395,2.448,21.95,1111122 
DISL,ioos:station:DISL:CATA:1,2009-01-04T21:30:00Z,30.3085,-88.1395,2.472,22.56,1111122 
DISL,ioos:station:DISL:CATA:1,2009-01-04T22:00:00Z,30.3085,-88.1395,2.469,23.39,1111122 
DISL,ioos:station:DISL:CATA:1,2009-01-04T22:30:00Z,30.3085,-88.1395,2.483,23.72,1111122 
DISL,ioos:station:DISL:CATA:1,2009-01-04T23:00:00Z,30.3085,-88.1395,2.472,23.84,1111122 
DISL,ioos:station:DISL:CATA:1,2009-01-04T23:30:00Z,30.3085,-88.1395,2.465,24.02,1111122 
DISL,ioos:station:DISL:CATA:1,2009-01-05T00:00:00Z,30.3085,-88.1395,2.463,24.4,1111122 
DISL,ioos:station:DISL:CATA:1,2009-01-05T00:30:00Z,30.3085,-88.1395,2.439,24.45,1111122 
DISL,ioos:station:DISL:CATA:1,2009-01-05T01:00:00Z,30.3085,-88.1395,2.424,24.63,1111122 
DISL,ioos:station:DISL:CATA:1,2009-01-05T01:30:00Z,30.3085,-88.1395,2.397,24.76,1111122 
DISL,ioos:station:DISL:CATA:1,2009-01-05T02:00:00Z,30.3085,-88.1395,2.396,18.22,1111122 
DISL,ioos:station:DISL:CATA:1,2009-01-05T02:30:00Z,30.3085,-88.1395,2.374,11.07,1111122 
DISL,ioos:station:DISL:CATA:1,2009-01-05T03:00:00Z,30.3085,-88.1395,2.358,10.53,1111122 
DISL,ioos:station:DISL:CATA:1,2009-01-05T03:30:00Z,30.3085,-88.1395,2.333,10.33,1111122 
DISL,ioos:station:DISL:CATA:1,2009-01-05T04:00:00Z,30.3085,-88.1395,2.308,10.17,1111122 
DISL,ioos:station:DISL:CATA:1,2009-01-05T04:30:00Z,30.3085,-88.1395,2.274,10.31,1111122 
DISL,ioos:station:DISL:CATA:1,2009-01-05T05:00:00Z,30.3085,-88.1395,2.248,10.4,1111122 
DISL,ioos:station:DISL:CATA:1,2009-01-05T05:30:00Z,30.3085,-88.1395,2.224,10.37,1111122 
DISL,ioos:station:DISL:CATA:1,2009-01-05T06:00:00Z,30.3085,-88.1395,2.199,10.19,1111122 
DISL,ioos:station:DISL:CATA:1,2009-01-05T06:30:00Z,30.3085,-88.1395,2.187,10.08,1111122 
DISL,ioos:station:DISL:CATA:1,2009-01-05T07:00:00Z,30.3085,-88.1395,2.174,10.04,1111122 
DISL,ioos:station:DISL:CATA:1,2009-01-05T07:30:00Z,30.3085,-88.1395,2.16,9.95,1111122 
DISL,ioos:station:DISL:CATA:1,2009-01-05T08:00:00Z,30.3085,-88.1395,2.151,9.86,1111122 
DISL,ioos:station:DISL:CATA:1,2009-01-05T08:30:00Z,30.3085,-88.1395,2.152,9.82,1111122 
DISL,ioos:station:DISL:CATA:1,2009-01-05T09:00:00Z,30.3085,-88.1395,2.155,9.72,1111122 
DISL,ioos:station:DISL:CATA:1,2009-01-05T09:30:00Z,30.3085,-88.1395,2.159,9.62,1111122 
DISL,ioos:station:DISL:CATA:1,2009-01-05T10:00:00Z,30.3085,-88.1395,2.159,9.51,1111122 
DISL,ioos:station:DISL:CATA:1,2009-01-05T10:30:00Z,30.3085,-88.1395,2.153,9.49,1111122 
DISL,ioos:station:DISL:CATA:1,2009-01-05T11:00:00Z,30.3085,-88.1395,2.149,9.43,1111122 
DISL,ioos:station:DISL:CATA:1,2009-01-05T11:30:00Z,30.3085,-88.1395,2.162,9.39,1111122 
DISL,ioos:station:DISL:CATA:1,2009-01-05T12:00:00Z,30.3085,-88.1395,2.172,9.43,1111122 
DISL,ioos:station:DISL:CATA:1,2009-01-05T12:30:00Z,30.3085,-88.1395,2.192,9.43,1111122 
DISL,ioos:station:DISL:CATA:1,2009-01-05T13:00:00Z,30.3085,-88.1395,2.216,9.43,1111122 
DISL,ioos:station:DISL:CATA:1,2009-01-05T13:30:00Z,30.3085,-88.1395,2.223,9.44,1111122 
DISL,ioos:station:DISL:CATA:1,2009-01-05T14:00:00Z,30.3085,-88.1395,2.245,9.36,1111122 
DISL,ioos:station:DISL:CATA:1,2009-01-05T14:30:00Z,30.3085,-88.1395,2.263,9.37,1111122 
DISL,ioos:station:DISL:CATA:1,2009-01-05T15:00:00Z,30.3085,-88.1395,2.293,9.39,1111122 
DISL,ioos:station:DISL:CATA:1,2009-01-05T15:30:00Z,30.3085,-88.1395,2.308,9.44,1111122 
DISL,ioos:station:DISL:CATA:1,2009-01-05T16:00:00Z,30.3085,-88.1395,2.329,9.49,1111122 
DISL,ioos:station:DISL:CATA:1,2009-01-05T16:30:00Z,30.3085,-88.1395,2.349,9.61,1111122 
DISL,ioos:station:DISL:CATA:1,2009-01-05T17:00:00Z,30.3085,-88.1395,2.37,9.73,1111122 
DISL,ioos:station:DISL:CATA:1,2009-01-05T17:30:00Z,30.3085,-88.1395,2.381,10.32,1111122 
DISL,ioos:station:DISL:CATA:1,2009-01-05T18:00:00Z,30.3085,-88.1395,2.391,10.66,1111122 
DISL,ioos:station:DISL:CATA:1,2009-01-05T18:30:00Z,30.3085,-88.1395,2.413,10.79,1111122 
DISL,ioos:station:DISL:CATA:1,2009-01-05T19:00:00Z,30.3085,-88.1395,2.436,11.56,1111122 
DISL,ioos:station:DISL:CATA:1,2009-01-05T19:30:00Z,30.3085,-88.1395,2.46,10.69,1111122 
DISL,ioos:station:DISL:CATA:1,2009-01-05T20:00:00Z,30.3085,-88.1395,2.48,10.96,1111122 
DISL,ioos:station:DISL:CATA:1,2009-01-05T20:30:00Z,30.3085,-88.1395,2.497,11.26,1111122 
DISL,ioos:station:DISL:CATA:1,2009-01-05T21:00:00Z,30.3085,-88.1395,2.518,11.44,1111122 
DISL,ioos:station:DISL:CATA:1,2009-01-05T21:30:00Z,30.3085,-88.1395,2.523,11.63,1111122 
DISL,ioos:station:DISL:CATA:1,2009-01-05T22:00:00Z,30.3085,-88.1395,2.538,11.8,1111122 
DISL,ioos:station:DISL:CATA:1,2009-01-05T22:30:00Z,30.3085,-88.1395,2.534,12.42,1111122 
DISL,ioos:station:DISL:CATA:1,2009-01-05T23:00:00Z,30.3085,-88.1395,2.528,16.8,1111122 
DISL,ioos:station:DISL:CATA:1,2009-01-05T23:30:00Z,30.3085,-88.1395,2.522,19.72,1111122 
DISL,ioos:station:DISL:CATA:1,2009-01-06T00:00:00Z,30.3085,-88.1395,2.523,20.67,1111122 
DISL,ioos:station:DISL:CATA:1,2009-01-06T00:30:00Z,30.3085,-88.1395,2.521,21.38,1111122 
DISL,ioos:station:DISL:CATA:1,2009-01-06T01:00:00Z,30.3085,-88.1395,2.498,21.56,1111122 
DISL,ioos:station:DISL:CATA:1,2009-01-06T01:30:00Z,30.3085,-88.1395,2.481,21.64,1111122 
DISL,ioos:station:DISL:CATA:1,2009-01-06T02:00:00Z,30.3085,-88.1395,2.471,21.43,1111122 
DISL,ioos:station:DISL:CATA:1,2009-01-06T02:30:00Z,30.3085,-88.1395,2.432,21.38,1111122 
DISL,ioos:station:DISL:CATA:1,2009-01-06T03:00:00Z,30.3085,-88.1395,2.413,20.45,1111122 
DISL,ioos:station:DISL:CATA:1,2009-01-06T03:30:00Z,30.3085,-88.1395,2.383,16.33,1111122 
DISL,ioos:station:DISL:CATA:1,2009-01-06T04:00:00Z,30.3085,-88.1395,2.356,13.0,1111122 
DISL,ioos:station:DISL:CATA:1,2009-01-06T04:30:00Z,30.3085,-88.1395,2.322,12.35,1111122 
DISL,ioos:station:DISL:CATA:1,2009-01-06T05:00:00Z,30.3085,-88.1395,2.279,12.07,1111122 
DISL,ioos:station:DISL:CATA:1,2009-01-06T05:30:00Z,30.3085,-88.1395,2.246,12.91,1111122 
DISL,ioos:station:DISL:CATA:1,2009-01-06T06:00:00Z,30.3085,-88.1395,2.209,12.29,1111122 
DISL,ioos:station:DISL:CATA:1,2009-01-06T06:30:00Z,30.3085,-88.1395,2.169,11.73,1111122 
DISL,ioos:station:DISL:CATA:1,2009-01-06T07:00:00Z,30.3085,-88.1395,2.145,11.47,1111122 
DISL,ioos:station:DISL:CATA:1,2009-01-06T07:30:00Z,30.3085,-88.1395,2.116,11.55,1111122 
DISL,ioos:station:DISL:CATA:1,2009-01-06T08:00:00Z,30.3085,-88.1395,2.106,11.61,1111122 
DISL,ioos:station:DISL:CATA:1,2009-01-06T08:30:00Z,30.3085,-88.1395,2.08,11.5,1111122 
DISL,ioos:station:DISL:CATA:1,2009-01-06T09:00:00Z,30.3085,-88.1395,2.065,11.37,1111122 
DISL,ioos:station:DISL:CATA:1,2009-01-06T09:30:00Z,30.3085,-88.1395,2.053,11.08,1111122 
DISL,ioos:station:DISL:CATA:1,2009-01-06T10:00:00Z,30.3085,-88.1395,2.044,10.91,1111122 
DISL,ioos:station:DISL:CATA:1,2009-01-06T10:30:00Z,30.3085,-88.1395,2.042,10.43,1111122 
DISL,ioos:station:DISL:CATA:1,2009-01-06T11:00:00Z,30.3085,-88.1395,2.031,10.35,1111122 
DISL,ioos:station:DISL:CATA:1,2009-01-06T11:30:00Z,30.3085,-88.1395,2.029,10.52,1111122 
DISL,ioos:station:DISL:CATA:1,2009-01-06T12:00:00Z,30.3085,-88.1395,2.029,10.6,1111122 
DISL,ioos:station:DISL:CATA:1,2009-01-06T12:30:00Z,30.3085,-88.1395,2.061,10.7,1111122 
DISL,ioos:station:DISL:CATA:1,2009-01-06T13:00:00Z,30.3085,-88.1395,2.081,10.87,1111122 
DISL,ioos:station:DISL:CATA:1,2009-01-06T13:30:00Z,30.3085,-88.1395,2.106,10.86,1111122 
DISL,ioos:station:DISL:CATA:1,2009-01-06T14:00:00Z,30.3085,-88.1395,2.143,10.76,1111122 
DISL,ioos:station:DISL:CATA:1,2009-01-06T14:30:00Z,30.3085,-88.1395,2.152,10.82,1111122 